Regional Weather Roundup
Issued by NWS

Home | Current Version | Previous Version | Graphics & Text | Print | Product List | Glossary On
Versions: 1 2 3 4 5 6 7 8 9 10 11 12 13 14 15 16 17 18 19 20 21 22 23 24 25 26 27 28 29 30 31 32 33 34 35 36 37 38 39 40 41 42 43 44 45 46 47 48 49 50
000
ASUS43 KLMK 210902
RWRKY
KENTUCKY REGIONAL WEATHER ROUNDUP
NATIONAL WEATHER SERVICE LOUISVILLE KY
500 AM EDT THU AUG 21 2014

NOTE "FAIR" INDICATES FEW OR NO CLOUDS BELOW 12,000 FEET
WITH NO SIGNIFICANT WEATHER AND/OR OBSTRUCTIONS TO VISIBILITY.

KYZ001>023-026-027-061>063-070>075-211000-
WESTERN AND SOUTH CENTRAL KENTUCKY

CITY           SKY/WX    TMP DP  RH WIND       PRES   REMARKS
PADUCAH        MOCLDY    79  72  79 CALM      30.01S
HENDERSON      CLOUDY    73  68  83 E3        30.02F
OWENSBORO      LGT RAIN  72  70  93 S5        30.04F
HOPKINSVILLE   NOT AVBL
BOWLING GREEN  CLOUDY    70  67  90 SW5       30.06S
GLASGOW        PTCLDY    68  68  99 CALM      30.07R
$$

KYZ024-025-028>034-038-045-046-053-211000-
NORTH CENTRAL KENTUCKY

CITY           SKY/WX    TMP DP  RH WIND       PRES   REMARKS
LOUISVILLE/SDF CLOUDY    72  68  87 SW5       30.04R
LOUISVILLE/LOU CLOUDY    72  68  87 SW5       30.05R
FORT KNOX      CLOUDY    70  70 100 SW6       30.05R
$$

KYZ035>037-039>044-047>052-055>060-089>105-211000-
NORTHEAST KENTUCKY

CITY           SKY/WX    TMP DP  RH WIND       PRES   REMARKS
LEXINGTON      PTCLDY    70  66  87 S7        30.07R
COVINGTON      MOCLDY    69  67  93 S5        30.03F FOG
FRANKFORT      PTCLDY    69  67  93 SW8       30.04S
$$

KYZ054-064>069-076>088-106>120-211000-
SOUTHEAST KENTUCKY

CITY           SKY/WX    TMP DP  RH WIND       PRES   REMARKS
JACKSON        PTCLDY    66  64  93 CALM      30.09S
LONDON         PTCLDY    67  64  90 CALM      30.10S
SOMERSET       PTCLDY    64  64 100 CALM      30.09S
MIDDLESBORO    CLOUDY    65  65 100 CALM      30.12S
MONTICELLO     SUNNY     66  66 100 CALM      30.10S
$$




USA.gov is the U.S. government's official web portal to all federal, state and local government web resources and services.